Preview of NWS' New Version of Forecast
This preview is not operational and should not be used for support decisions.

Regional Weather Roundup (RWR)

Issued by National Weather Service (NWS)

                            
000
ASUS44 KMEG 181710
RWRTN 
TENNESSEE HOURLY STATE WEATHER ROUNDUP
NATIONAL WEATHER SERVICE MEMPHIS TN
1200 PM CDT TUE JUN 18 2019

TNZ002-004-019-021-049-052-054-088>092-181800-
WEST TENNESSEE
  
CITY           SKY/WX    TMP DP  RH WIND       PRES   REMARKS
MEMPHIS INTL   CLOUDY    77  73  87 CALM      29.93S                  
NWS MEMPHIS      N/A     78 N/A N/A MISG        N/A                   
JACKSON        CLOUDY    76  73  91 S6        29.95S                  
DYERSBURG      CLOUDY    80  71  74 S7        29.93F                  
COVINGTON      PTSUNNY   77  72  83 SE7       29.92F                  
UNION CITY     CLOUDY    79  72  78 S6        29.91F                  
BOLIVAR        CLOUDY    75  72  88 SE8       29.94S                  
PARIS          CLOUDY    79  72  78 S6        29.93F                  
HUNTINGDON     PTSUNNY   81  72  74 S6G12     29.93F                  
LEXINGTON      CLOUDY    79  72  78 S10       29.94F                  
SELMER         MOSUNNY   73  70  88 W5        29.95F                  
SAVANNAH       CLOUDY    75  72  88 CALM      29.95F                  
$$

TNZ008-025-027-028-033-062-065-066-181800-
NORTH MIDDLE TENNESSEE
  
CITY           SKY/WX    TMP DP  RH WIND       PRES   REMARKS
NASHVILLE      PTSUNNY   79  70  74 S8        29.96S                  
DICKSON        PTSUNNY   77  70  78 SW6G13    29.95S                  
PORTLAND       CLOUDY    75  72  88 SE7       29.95F                  
CLARKSVILLE    CLOUDY    76  69  79 SW3       29.94F                  
LEBANON        PTSUNNY   77  72  83 S7        29.94F                  
SMYRNA         PTSUNNY   78  72  81 SW6       29.96F                  
MURFREESBORO   MOSUNNY   79  72  78 S8        29.94F                  
COOKEVILLE     PTSUNNY   75  72  88 VRB5      29.98S                  
LIVINGSTON     SUNNY     73  68  83 CALM      29.98F                  
CROSSVILLE     PTSUNNY   72  67  84 SW5       30.03F                  
ROCKWOOD       PTSUNNY   75  70  83 VRB3      30.02S                  
$$

TNZ061-075-076-078-094-096-097-181800-
SOUTH MIDDLE TENNESSEE
  
CITY           SKY/WX    TMP DP  RH WIND       PRES   REMARKS
LAWRENCEBURG   CLOUDY    77  70  78 VRB6      29.97F                  
LEWISBURG      MOSUNNY   81  72  74 S8        29.96F                  
FAYETTEVILLE   CLOUDY    77  72  83 S6        29.98S                  
TULLAHOMA      PTSUNNY   77  72  83 S5        29.98F                  
WINCHESTER     PTSUNNY   77  70  78 W7        29.98F                  
MCMINNVILLE    PTSUNNY   77  72  83 VRB5G12   29.97F                  
COLUMBIA       MOSUNNY   77  77 100 SW10      29.94F                  
SHELBYVILLE    MOSUNNY   79  72  78 SW6       29.96F                  
$$

TNZ017-018-042-046-047-181800-
NORTHEAST TENNESSEE
  
CITY           SKY/WX    TMP DP  RH WIND       PRES   REMARKS
TRI CITIES     PTSUNNY   79  68  69 CALM      30.03F                  
ELIZABETHTON   FAIR      79  68  69 CALM      30.03S                  
GREENEVILLE    PTSUNNY   77  70  78 NW6       30.02F                  
$$

TNZ012-013-036-069-073-074-181800-
CENTRAL EAST TENNESSEE
  
CITY           SKY/WX    TMP DP  RH WIND       PRES   REMARKS
KNOXVILLE      CLOUDY    72  69  90 S3        30.01R FOG              
OAK RIDGE      CLOUDY    75  71  87 S3        30.01                   
DOWNTOWN KNOXV FOG       72  72 100 CALM      30.02S VSB 1            
GATLINBURG     CLOUDY    72  72 100 N6        30.01R FOG              
MORRISTOWN     FOG       70  70 100 VRB5G13   30.03R VSB 3/4          
JACKSBORO      CLOUDY    75  70  83 VRB3      30.04S                  
$$

TNZ083-085-099-181800-
SOUTHEAST TENNESSEE
  
CITY           SKY/WX    TMP DP  RH WIND       PRES   REMARKS
CHATTANOOGA    CLOUDY    78  74  87 CALM      29.99S                  
$$

SKY/WX REPORTED AS FAIR MEANS FEW OR NO CLOUDS BELOW
12 THOUSAND FEET.